[[{"header":{"parameterUnit":"m.s-1","parameterCategory":1,"la1":30.2991,"la2":30.254,"lo1":-89.0895,"lo2":-89.0444,"dy":0.0017,"dx":0.0017,"nx":28,"ny":28,"refTime":"2023-08-13T03:00:00:Z","depth":0,"parameterNumber":2,"parameterNumberName":"U-component_of_WINDS"},"data":[0,0,0,0,0,0,0,0,0,0,0,0,0,0,0,0,0,0,0,0,0,0,0,0,0,0,0,0,0,0,0,0,0,0,0,0,0,0,0,0,0,0,0,0,0,0,0,0,0,0,0,0,0,0,0,0,0,0,1.1337,1.1338,0,1.1395,1.1396,1.1397,1.14,1.1399,1.1398,1.1398,1.1456,1.1458,1.146,0,0,0,0,0,0,0,0,0,0,0,0,0,1.1225,1.1227,1.1337,1.1338,1.1339,1.1395,1.1396,1.1397,1.14,1.1399,1.1398,1.1397,1.1455,1.1458,1.146,0,0,0,0,0,0,0,0,0,0,0,0,0,1.1278,1.1228,1.1337,1.1347,1.1348,1.1395,1.1396,1.1397,1.14,1.1399,1.1398,1.1397,1.1454,1.1457,1.1461,1.1501,0,0,1.147,1.1472,0,0,0,0,0,0,0,0,1.1275,1.1282,1.1345,1.1346,1.1348,1.1389,1.1378,1.1432,1.14,1.138,1.1398,1.1396,1.1434,1.1439,1.1452,1.1504,1.1506,1.1471,1.1473,1.1474,1.1475,0,0,0,0,0,0,0,1.1271,1.1279,1.136,1.1345,1.1348,1.1347,1.1354,1.1388,1.1412,1.1382,1.1382,1.1389,1.1435,1.1449,1.1454,1.1507,1.1471,1.1474,1.1476,1.1477,1.1592,1.1593,0,0,0,0,0,0,1.1266,1.1276,1.1358,1.1362,1.1308,1.135,1.1357,1.1377,1.1412,1.1416,1.139,1.1389,1.1444,1.145,1.1456,1.1504,1.1474,1.1477,1.1479,1.1591,1.1592,1.1594,0,0,0,0,0,0,1.1263,1.1273,1.1356,1.1319,1.133,1.1353,1.1375,1.1379,1.1393,1.1418,1.1422,1.14,1.1443,1.1451,1.1489,1.1506,1.1479,1.1482,1.159,1.1591,1.1593,1.1601,0,0,0,0,0,0,1.126,1.1272,1.1289,1.1319,1.1332,1.1389,1.1376,1.138,1.1399,1.1398,1.1429,1.1433,1.1443,1.1484,1.1492,1.151,1.1484,1.1588,1.159,1.1592,1.1599,1.1603,1.1606,0,0,0,0,0,1.1256,1.1289,1.1289,1.1299,1.1353,1.139,1.1397,1.1409,1.14,1.1416,1.1432,1.1432,1.1503,1.1488,1.1497,1.1516,1.1587,1.159,1.1592,1.1598,1.1602,1.1606,0,0,0,0,0,0,1.1259,1.1293,1.1294,1.1338,1.1361,1.1391,1.1411,1.1413,1.1439,1.1438,1.1451,1.1458,1.1495,1.151,1.1493,1.1556,1.1544,1.1548,1.1545,1.1549,1.1552,1.1547,1.1487,0,0,0,0,0,1.1265,1.1293,1.1321,1.1357,1.1369,1.1388,1.1405,1.1412,1.1436,1.1446,1.1465,1.1488,1.1515,1.1533,1.156,1.1602,1.1607,1.1619,1.1622,1.1624,1.1628,1.1649,1.1653,1.1602,1.1602,1.1602,0,0,1.1277,1.1299,1.1316,1.1358,1.1377,1.1405,1.1396,1.1427,1.1447,1.1451,1.1487,1.1502,1.1528,1.1568,1.1586,1.1581,1.1643,1.1627,1.1629,1.1631,1.1652,1.1656,1.1661,1.1603,1.1603,1.1603,0,0,1.1313,1.1333,1.1364,1.1383,1.1412,1.1424,1.1432,1.1461,1.1471,1.1508,1.151,1.1534,1.1582,1.16,1.1616,1.1657,1.1657,1.1665,1.1681,1.1702,1.1706,1.1709,1.1722,1.1727,1.1669,1.1669,1.1669,0,1.1324,1.1367,1.138,1.141,1.1428,1.1432,1.1463,1.148,1.1516,1.1527,1.1521,1.1579,1.1598,1.1641,1.165,1.1663,1.1671,1.1661,1.1704,1.1708,1.1711,1.1724,1.1729,1.1669,1.1669,1.1669,1.1669,0,1.1379,1.1408,1.143,1.1464,1.1484,1.1515,1.153,1.1549,1.1554,1.1567,1.1603,1.1625,1.1656,1.1667,1.1672,1.171,1.1705,1.1702,1.169,1.1717,1.1729,1.1734,1.167,1.167,1.167,1.167,0,0,1.1418,1.1459,1.1466,1.1481,1.1512,1.1535,1.1564,1.1594,1.1609,1.1633,1.1657,1.1697,1.1693,1.171,1.1718,1.1736,1.1764,1.1729,1.173,1.1734,1.1805,1.1807,1.1813,1.1765,1.1766,1.1767,1.1803,0,1.1457,1.151,1.1522,1.1568,1.1594,1.1598,1.1623,1.1644,1.1657,1.168,1.1694,1.172,1.1714,1.1724,1.1743,1.1757,1.1779,1.1755,1.1786,1.1787,1.1778,1.1819,1.1822,1.1854,1.1807,1.1808,1.1809,0,1.1509,1.1534,1.1582,1.1608,1.162,1.1643,1.167,1.1693,1.1716,1.1724,1.1743,1.1748,1.1777,1.1764,1.1804,1.1787,1.1801,1.181,1.1811,1.1814,1.1799,1.1822,1.1865,1.187,1.1817,1.1816,1.1816,0,1.1531,1.1577,1.1611,1.1624,1.1656,1.1672,1.1685,1.1708,1.1724,1.1748,1.1759,1.1785,1.18,1.182,1.1831,1.1821,1.1869,1.1858,1.1875,1.1875,1.1885,1.1884,1.193,1.1895,1.1895,1.1895,1.1895,0,1.1572,1.1601,1.1621,1.1643,1.1674,1.1687,1.1718,1.1731,1.1751,1.1774,1.1779,1.18,1.1814,1.1837,1.1846,1.1876,1.1883,1.1889,1.1891,1.1888,1.1887,1.1896,1.1894,1.1897,1.1896,1.1896,1.1896,0,1.1602,1.1617,1.1654,1.1681,1.1689,1.1711,1.1733,1.1753,1.1765,1.1793,1.1801,1.1819,1.1846,1.186,1.1893,1.1899,1.1933,1.1934,1.1925,1.1926,1.1941,1.1939,1.1994,1.2002,1.1963,1.1964,1.1964,0,1.1627,1.1649,1.1678,1.1693,1.1708,1.1733,1.175,1.1762,1.1779,1.1807,1.1823,1.185,1.1872,1.1914,1.193,1.1955,1.1956,1.1974,1.196,1.1956,1.1955,1.1953,1.1954,1.1976,1.1976,1.1977,1.1977,0,1.1668,1.1674,1.1698,1.1725,1.1745,1.1766,1.1787,1.18,1.1815,1.1834,1.1862,1.1879,1.1912,1.1938,1.1965,1.1978,1.1979,1.1981,1.1986,1.1983,1.1976,1.1978,1.193,1.198,1.1979,1.1979,1.1979,1.1979,1.1695,1.1714,1.1737,1.1764,1.1781,1.18,1.1819,1.1834,1.1857,1.1885,1.1891,1.192,1.1941,1.1976,1.199,1.2012,1.2008,1.2015,1.2017,1.2019,1.2019,1.1973,1.2016,1.2016,1.2016,1.2016,1.2016,0,1.1735,1.175,1.1774,1.1804,1.1824,1.1824,1.1847,1.1864,1.1889,1.1909,1.193,1.1961,1.1986,1.2004,1.2029,1.2043,1.2044,1.2049,1.2047,1.205,1.2021,1.2014,1.2047,1.2047,1.2047,1.2047,1.2047,1.2047,1.1759,1.1791,1.1799,1.1839,1.1854,1.1882,1.1895,1.1912,1.1928,1.1962,1.1982,1.1994,1.2012,1.2038,1.2061,1.2065,1.2074,1.2078,1.2082,1.2055,1.2052,1.2049,1.2042,1.208,1.208,1.2109,1.2109,1.2109]},{"header":{"parameterUnit":"m.s-1","parameterCategory":1,"la1":30.2991,"la2":30.254,"lo1":-89.0895,"lo2":-89.0444,"dy":0.0017,"dx":0.0017,"nx":28,"ny":28,"refTime":"2023-08-13T03:00:00:Z","depth":0,"parameterNumber":3,"parameterNumberName":"V-component_of_WINDS"},"data":[0,0,0,0,0,0,0,0,0,0,0,0,0,0,0,0,0,0,0,0,0,0,0,0,0,0,0,0,0,0,0,0,0,0,0,0,0,0,0,0,0,0,0,0,0,0,0,0,0,0,0,0,0,0,0,0,0,0,5.1685,5.1684,0,5.165,5.1649,5.1649,5.1545,5.1543,5.1541,5.1539,5.1505,5.1506,5.1507,0,0,0,0,0,0,0,0,0,0,0,0,0,5.1663,5.1664,5.1685,5.1684,5.1684,5.165,5.1649,5.1649,5.1546,5.1543,5.154,5.1538,5.1504,5.1506,5.1507,0,0,0,0,0,0,0,0,0,0,0,0,0,5.1655,5.1664,5.1685,5.1628,5.1623,5.165,5.1649,5.1649,5.1546,5.1543,5.154,5.1536,5.1504,5.1506,5.1507,5.1587,0,0,5.1513,5.1514,0,0,0,0,0,0,0,0,5.1656,5.1656,5.1637,5.1632,5.1626,5.1598,5.1629,5.1628,5.1547,5.1576,5.1539,5.1535,5.1539,5.1537,5.1538,5.1585,5.1584,5.1513,5.1514,5.1515,5.1515,0,0,0,0,0,0,0,5.1656,5.1657,5.1671,5.1637,5.163,5.1605,5.16,5.1628,5.1577,5.1573,5.1565,5.1562,5.1535,5.1537,5.1537,5.1583,5.1513,5.1515,5.1516,5.1516,5.1692,5.1695,0,0,0,0,0,0,5.1665,5.1658,5.1672,5.167,5.1633,5.1608,5.1603,5.1611,5.1576,5.1567,5.1565,5.1558,5.1535,5.1535,5.1535,5.1624,5.1515,5.1517,5.1518,5.1688,5.1692,5.1696,0,0,0,0,0,0,5.1665,5.1667,5.1673,5.1662,5.1661,5.1612,5.1622,5.1612,5.1613,5.157,5.1561,5.1577,5.1533,5.1533,5.1574,5.1622,5.1517,5.1519,5.1684,5.1689,5.1694,5.1804,0,0,0,0,0,0,5.1665,5.1668,5.1697,5.1663,5.1662,5.1713,5.1625,5.1614,5.1617,5.1606,5.1578,5.1571,5.153,5.1572,5.1576,5.1622,5.1521,5.1679,5.1686,5.1693,5.1796,5.1813,5.1827,0,0,0,0,0,5.1664,5.173,5.1699,5.1701,5.1697,5.1716,5.1715,5.1667,5.1621,5.165,5.1622,5.1571,5.1616,5.1577,5.1581,5.1628,5.1676,5.1684,5.1692,5.1789,5.1809,5.1826,0,0,0,0,0,0,5.1772,5.1725,5.169,5.1747,5.1736,5.1698,5.1734,5.169,5.1692,5.1683,5.1623,5.1618,5.1667,5.1652,5.1609,5.1703,5.1638,5.1647,5.171,5.1729,5.1744,5.1746,5.1522,0,0,0,0,0,5.1802,5.1821,5.1779,5.1833,5.1829,5.1783,5.1789,5.1753,5.1739,5.1734,5.171,5.1699,5.171,5.1719,5.1728,5.1794,5.1786,5.1828,5.1844,5.1857,5.1865,5.1897,5.1915,5.1723,5.1723,5.1722,0,0,5.1865,5.1842,5.1857,5.1854,5.1841,5.1862,5.178,5.1805,5.1819,5.1738,5.1775,5.1757,5.1741,5.1795,5.1818,5.1784,5.1916,5.1867,5.1877,5.1878,5.1907,5.1926,5.1942,5.1728,5.1727,5.1726,0,0,5.1989,5.1974,5.2017,5.2006,5.1987,5.1956,5.1966,5.1935,5.1919,5.1955,5.1895,5.1911,5.1933,5.1923,5.1922,5.2042,5.1995,5.2047,5.2126,5.2159,5.2174,5.2187,5.2229,5.2244,5.2055,5.2056,5.2056,0,5.207,5.2098,5.2045,5.2073,5.2073,5.2,5.2043,5.2035,5.2021,5.2023,5.1985,5.2009,5.1994,5.2044,5.2073,5.2075,5.2084,5.2049,5.2176,5.2189,5.22,5.2239,5.2255,5.2062,5.2061,5.2061,5.206,0,5.2197,5.2217,5.2254,5.224,5.2245,5.2281,5.2233,5.2244,5.2208,5.218,5.2217,5.2196,5.2198,5.2208,5.2173,5.2253,5.2232,5.2187,5.212,5.2226,5.2261,5.2276,5.2071,5.2069,5.2067,5.2065,0,0,5.2387,5.2344,5.2358,5.235,5.2324,5.2339,5.2372,5.2373,5.2382,5.2376,5.24,5.242,5.2377,5.2375,5.2339,5.2368,5.2462,5.2318,5.2317,5.2344,5.2547,5.258,5.2599,5.2432,5.2434,5.2436,5.2548,0,5.2503,5.2555,5.2508,5.2569,5.2586,5.2517,5.2545,5.2532,5.2508,5.2519,5.2492,5.2506,5.245,5.2448,5.2473,5.2446,5.2502,5.2437,5.2454,5.2455,5.2458,5.2617,5.2652,5.2759,5.2562,5.2564,5.2566,0,5.2645,5.2643,5.2706,5.2674,5.268,5.2706,5.2702,5.2715,5.2699,5.2679,5.2676,5.2632,5.2661,5.2597,5.2636,5.2593,5.2597,5.2585,5.2588,5.2586,5.2516,5.2618,5.2792,5.2807,5.2587,5.2586,5.2584,0,5.2776,5.2789,5.2827,5.2823,5.2788,5.2808,5.2795,5.2775,5.2779,5.2776,5.2777,5.2779,5.278,5.2782,5.2739,5.2697,5.2783,5.2716,5.2767,5.2768,5.2787,5.2786,5.2962,5.2793,5.2793,5.2793,5.2792,0,5.2909,5.295,5.2885,5.2909,5.2952,5.2898,5.2942,5.2921,5.2905,5.2923,5.2865,5.2883,5.2826,5.2838,5.2805,5.2842,5.2843,5.2827,5.2818,5.2831,5.2833,5.2832,5.2823,5.2797,5.2796,5.2795,5.2794,0,5.3062,5.302,5.3057,5.3021,5.3012,5.3046,5.3015,5.3035,5.3006,5.303,5.3033,5.2989,5.3,5.2958,5.2963,5.294,5.2994,5.2973,5.2999,5.2992,5.3044,5.3039,5.3224,5.3245,5.3065,5.3067,5.3068,0,5.3149,5.3178,5.3144,5.3152,5.3141,5.3154,5.3157,5.3105,5.3111,5.3094,5.3117,5.3123,5.3125,5.3148,5.3116,5.3119,5.3097,5.3161,5.3097,5.311,5.3096,5.3094,5.3096,5.3174,5.3177,5.3178,5.318,0,5.3307,5.3284,5.329,5.3289,5.3293,5.329,5.3283,5.3293,5.3237,5.3246,5.3256,5.3258,5.3263,5.327,5.3266,5.3253,5.3207,5.3201,5.3212,5.3226,5.3239,5.3231,5.3034,5.3196,5.3195,5.3193,5.3192,5.3192,5.3427,5.3449,5.3429,5.3437,5.3426,5.342,5.3437,5.341,5.3418,5.3417,5.3386,5.3403,5.3386,5.3376,5.3367,5.3379,5.3349,5.3366,5.337,5.3375,5.3383,5.3238,5.3379,5.3378,5.3378,5.3377,5.3377,0,5.3581,5.3564,5.3572,5.3563,5.3569,5.3526,5.3515,5.3523,5.3538,5.3526,5.3529,5.3541,5.3548,5.3517,5.3519,5.3534,5.3514,5.3537,5.3534,5.3531,5.3411,5.34,5.3553,5.3553,5.3553,5.3553,5.3553,5.3553,5.3661,5.3696,5.3671,5.37,5.3682,5.3697,5.3695,5.3689,5.3679,5.3694,5.3699,5.3679,5.3658,5.3659,5.3663,5.3653,5.3656,5.3686,5.367,5.3557,5.354,5.3524,5.3513,5.3688,5.3688,5.3789,5.379,5.3791]}]]